Volver al catálogo

STARLINK-36271

ActivoComunicacionesVLEO
NORAD 68703·PAYLOAD·🇺🇸 United States

Lanzado Apr 14, 2026 desde Cape Canaveral Space Force Station

Loading…

Próximos Pases (próximas 24 horas)

TLE

ActualizadoSource: CelesTrak SupGP

Época: Sep 14, 2026, 23:18 UTC

1 68703C 26081E   26257.97131944  .00012668  00000+0  37438-3 0  2578
2 68703  53.1576 231.8149 0001318  89.9289   1.2370 15.34374811    10

Sigue STARLINK-36271 en tiempo real con AllMySat

Download on the App Store